N3965C KDSM-KBIV

Flight info

Callsign N3965C
Flight time N/A
Altitude 21000
Route DSM J144 DBQ J94 PMM
Aircraft B58T/L-SBDFGRY/LB1

Departure

Time 2026-05-01 15:24
Airport Des Moines International Airport (KDSM)

Arrival

Time N/A
Airport West Michigan Regional Airport (KBIV)
Time Latitude Longitude Altitude Speed Heading
2026-05-01 14:53 41.53839 -93.65906 933 ft 0 kts
2026-05-01 15:18 41.53858 -93.65981 933 ft 10 kts 273°
2026-05-01 15:18 41.53827 -93.66040 933 ft 8 kts 216°
2026-05-01 15:19 41.53875 -93.66232 935 ft 14 kts 315°
2026-05-01 15:19 41.54035 -93.66460 934 ft 17 kts 312°
2026-05-01 15:19 41.54121 -93.66585 930 ft 19 kts 311°
2026-05-01 15:20 41.54308 -93.66862 921 ft 22 kts 313°
2026-05-01 15:20 41.54408 -93.67007 919 ft 21 kts 312°
2026-05-01 15:20 41.54509 -93.67151 917 ft 21 kts 313°
2026-05-01 15:21 41.54591 -93.67273 918 ft 14 kts 311°
2026-05-01 15:21 41.54617 -93.67353 916 ft 7 kts 238°
2026-05-01 15:21 41.54614 -93.67359 916 ft 0 kts 229°
2026-05-01 15:23 41.54608 -93.67368 916 ft 5 kts 228°
2026-05-01 15:23 41.54565 -93.67419 917 ft 10 kts 217°
2026-05-01 15:23 41.54537 -93.67404 918 ft 6 kts 132°
2026-05-01 15:23 41.54453 -93.67281 918 ft 50 kts 131°
2026-05-01 15:24 41.54014 -93.66645 1074 ft 114 kts 132°
2026-05-01 15:24 41.53403 -93.65855 1525 ft 129 kts 138°
2026-05-01 15:24 41.52714 -93.65039 2160 ft 135 kts 134°
2026-05-01 15:24 41.51934 -93.64311 2839 ft 139 kts 165°
2026-05-01 15:25 41.50981 -93.64378 3543 ft 136 kts 206°
2026-05-01 15:25 41.50121 -93.64927 4269 ft 135 kts 212°
2026-05-01 15:25 41.49279 -93.65447 4952 ft 136 kts 205°
2026-05-01 15:25 41.48322 -93.65584 5725 ft 141 kts 183°
2026-05-01 15:26 41.47349 -93.65438 6483 ft 142 kts 176°
2026-05-01 15:26 41.46374 -93.65229 7140 ft 143 kts 179°
2026-05-01 15:26 41.45450 -93.64756 7802 ft 149 kts 144°
2026-05-01 15:26 41.44811 -93.63664 8483 ft 151 kts 110°
2026-05-01 15:27 41.44718 -93.62301 9064 ft 147 kts 71°
2026-05-01 15:27 41.45087 -93.61081 9672 ft 143 kts 55°
2026-05-01 15:27 41.45497 -93.59859 10266 ft 145 kts 57°
2026-05-01 15:28 41.46352 -93.57375 11356 ft 149 kts 56°
2026-05-01 15:28 41.46783 -93.56123 11915 ft 151 kts 55°
2026-05-01 15:28 41.47231 -93.54833 12450 ft 154 kts 56°
2026-05-01 15:29 41.48133 -93.52206 13543 ft 158 kts 56°
2026-05-01 15:29 41.48597 -93.50864 14083 ft 160 kts 56°
2026-05-01 15:29 41.49533 -93.48138 15075 ft 164 kts 56°
2026-05-01 15:30 41.50331 -93.45812 15936 ft 167 kts 57°
2026-05-01 15:31 41.52475 -93.39563 18159 ft 175 kts 57°
2026-05-01 15:31 41.53488 -93.36603 19118 ft 178 kts 57°
2026-05-01 15:32 41.54351 -93.34075 19909 ft 180 kts 58°
2026-05-01 15:32 41.55403 -93.31000 20865 ft 183 kts 58°
2026-05-01 15:33 41.57233 -93.25641 21043 ft 233 kts 60°
2026-05-01 15:34 41.59300 -93.19561 21037 ft 246 kts 60°